| time (UTC) | temp F | wind direction | speed MPH | gust MPH | rain 1hr in | rain 24hr in | rain mn in | humidity % | barometer mb |
| 20260508113040 | 49 | 256 | 1.0 | 3.0 | 0.00 | 0.00 | 0.00 | ||
| 20260508110110 | 49 | 135 | 0.0 | 1.0 | 0.00 | 0.00 | 0.00 | ||
| 20260508103051 | 48 | 135 | 0.0 | 1.0 | 0.00 | 0.00 | 0.00 | ||
| 20260508100059 | 48 | 135 | 0.0 | 1.0 | 0.00 | 0.00 | 0.00 | ||
| 20260508093038 | 48 | 138 | 0.0 | 0.0 | 0.00 | 0.00 | 0.00 | ||
| 20260508083047 | 48 | 171 | 0.0 | 0.0 | 0.00 | 0.00 | 0.00 | ||
| 20260508080056 | 48 | 171 | 0.0 | 0.0 | 0.00 | 0.00 | 0.00 | ||
| 20260508073038 | 48 | 171 | 0.0 | 0.0 | 0.00 | 0.00 | 0.00 | ||
| 20260508070107 | 48 | 171 | 0.0 | 0.0 | 0.00 | 0.00 | 0.00 | ||
| 20260508063046 | 48 | 136 | 0.0 | 0.0 | 0.00 | 0.00 | 0.00 | ||
| 20260508060057 | 49 | 136 | 0.0 | 1.0 | 0.00 | 0.00 | 0.00 | ||
| 20260508053038 | 49 | 154 | 0.0 | 0.0 | 0.00 | 0.00 | 0.00 | ||
| 20260508050106 | 49 | 174 | 0.0 | 1.0 | 0.00 | 0.00 | 0.00 | ||
| 20260508043046 | 50 | 231 | 0.0 | 0.0 | 0.00 | 0.00 | 0.00 | ||
| 20260508033032 | 52 | 222 | 0.0 | 3.0 | 0.00 | 0.00 | 0.00 | ||
| 20260508030058 | 53 | 240 | 0.0 | 2.0 | 0.00 | 0.00 | 0.00 | ||
| 20260508023039 | 54 | 213 | 0.0 | 5.0 | 0.00 | 0.00 | 0.00 | ||
| 20260508020110 | 55 | 279 | 1.0 | 5.0 | 0.00 | 0.00 | 0.00 | ||
| 20260508010100 | 57 | 272 | 2.0 | 8.0 | 0.00 | 0.00 | 0.00 | ||
| 20260508003042 | 58 | 250 | 2.0 | 7.0 | 0.00 | 0.00 | 0.00 | ||
| 20260508000052 | 59 | 237 | 2.0 | 7.0 | 0.00 | 0.00 | 0.00 | ||
| 20260507233034 | 61 | 304 | 2.0 | 7.0 | 0.00 | 0.00 | 0.00 | ||
| 20260507230104 | 62 | 260 | 2.0 | 6.0 | 0.00 | 0.00 | 0.00 | ||
| 20260507223042 | 62 | 246 | 4.0 | 9.0 | 0.00 | 0.00 | 0.00 | ||
| 20260507220054 | 64 | 211 | 1.0 | 10.0 | 0.00 | 0.00 | 0.00 | ||
| 20260507210046 | 62 | 218 | 1.0 | 7.0 | 0.00 | 0.00 | 0.00 | ||
| 20260507203050 | 61 | 265 | 2.0 | 7.0 | 0.00 | 0.00 | 0.00 | ||
| 20260507200059 | 61 | 357 | 2.0 | 5.0 | 0.00 | 0.00 | 0.00 | ||
| 20260507193037 | 60 | 244 | 0.0 | 6.0 | 0.00 | 0.00 | 0.00 | ||
| 20260507190100 | 60 | 208 | 2.0 | 7.0 | 0.00 | 0.00 | 0.00 | ||
| 20260507180050 | 58 | 170 | 1.0 | 4.0 | 0.00 | 0.00 | 0.00 | ||
| 20260507173047 | 58 | 253 | 1.0 | 3.0 | 0.00 | 0.00 | 0.00 | ||
| 20260507170057 | 57 | 327 | 1.0 | 6.0 | 0.00 | 0.00 | 0.00 | ||
| 20260507163037 | 57 | 231 | 1.0 | 4.0 | 0.00 | 0.00 | 0.00 | ||
| 20260507160108 | 56 | 190 | 0.0 | 3.0 | 0.00 | 0.00 | 0.00 | ||
| 20260507153046 | 56 | 168 | 1.0 | 4.0 | 0.00 | 0.00 | 0.00 | ||
| 20260507150056 | 59 | 270 | 1.0 | 3.0 | 0.00 | 0.00 | 0.00 | ||
| 20260507140106 | 56 | 285 | 0.0 | 2.0 | 0.00 | 0.00 | 0.00 | ||
| 20260507133044 | 49 | 292 | 0.0 | 0.0 | 0.00 | 0.00 | 0.00 | ||
| 20260507123053 | 49 | 292 | 0.0 | 0.0 | 0.00 | 0.00 | 0.00 |